Regional Weather Roundup
Issued by NWS

Home | Current Version | Previous Version | Graphics & Text | Print | Product List | Glossary On
Versions: 1 2 3 4 5 6 7 8 9 10 11 12 13 14 15 16 17 18 19 20 21 22 23 24 25 26 27 28 29 30 31 32 33 34 35 36 37 38 39 40 41 42 43 44 45 46 47 48 49 50
000
ASUS45 KBOU 311710
RWRCO

WEATHER ROUNDUP FOR COLORADO
NATIONAL WEATHER SERVICE DENVER/BOULDER CO
1100 AM MDT FRI JUL 31 2015

NOTE: "FAIR" INDICATES FEW OR NO CLOUDS BELOW 12000 FEET WITH NO
SIGNIFICANT WEATHER AND/OR OBSTRUCTIONS TO VISIBILITY.

COZ001>005-013-030-031-311800-
...NORTHWEST COLORADO...

CITY           SKY/WX    TMP DP  RH WIND       PRES   REMARKS
CRAIG          SUNNY     80  40  23 VRB3      30.37F
HAYDEN         SUNNY     77  41  27 W5        30.39S
MEEKER         MOSUNNY   77  42  28 SW3       30.39F
MOUNT WERNER   NOT AVBL
STEAMBOAT SPGS SUNNY     75  45  34 W3        30.40F
WALDEN         SUNNY     70  37  30 CALM      30.51F
$$

COZ006>008-011-311800-
...WEST CENTRAL VALLEYS...

CITY           SKY/WX    TMP DP  RH WIND       PRES   REMARKS
GRAND JUNCTION SUNNY     80  41  24 VRB6      30.28F
MONTROSE       MOSUNNY   81  45  28 CALM      30.36F
EAGLE          MOSUNNY   68  36  30 CALM      30.45
RIFLE          MOSUNNY   80  39  23 CALM      30.32F
DELTA          MOSUNNY   83  41  22 W3        30.32S
NUCLA          MOSUNNY   73  48  40 CALM      30.42S
$$

COZ017>023-064>068-311800-
...SOUTHWEST COLORADO...

CITY           SKY/WX    TMP DP  RH WIND       PRES   REMARKS
DURANGO        CLOUDY    68  55  63 SE3       30.44F
CORTEZ         SUNNY     75  56  51 CALM      30.38F
PAGOSA SPRINGS CLOUDY    69  52  54 CALM      30.51S
TELLURIDE      CLOUDY    65  46  49 CALM      30.61F
WOLF CREEK PAS NOT AVBL
$$

COZ009-010-012-014-032>034-037-058>063-311800-
...CENTRAL COLORADO...

CITY           SKY/WX    TMP DP  RH WIND       PRES   REMARKS
ASPEN          SUNNY     74  47  38 N6        30.47F
BUENA VISTA    SUNNY     72  48  43 CALM      30.51F
COPPER MTN     CLOUDY    59  34  38 W7        30.81S
BERTHOUD PASS  CLOUDY    50  39  66 E13G21    30.87R
COTTONWOOD PAS SUNNY     70  46  43 E5        30.66S
GUNNISON       MOSUNNY   72  46  40 N5        30.51F
KREMMLING      SUNNY     73  37  27 W3        30.48F
LEADVILLE      MOSUNNY   66  35  31 S9G17     30.63F
MONARCH PASS   MOSUNNY   55  41  58 E15       30.91S
SALIDA         SUNNY     72  50  46 S5        30.56F
SUNLIGHT       SUNNY     64  45  48 W3        30.74S
WILKERSON PASS SUNNY     61  32  33 CALM      30.79S
$$

COZ069>075-311800-
...SAN LUIS VALLEY/SANGRE DE CRISTO MOUNTAINS...

CITY           SKY/WX    TMP DP  RH WIND       PRES   REMARKS
ALAMOSA        CLOUDY    69  53  56 NW5       30.49F
LA VETA PASS   CLOUDY    63  46  55 MISG      30.69S
SAGUACHE       MOSUNNY   70  52  52 S5        30.52F
$$

COZ035-036-038>040-311800-
...NORTHERN COLORADO FRONT RANGE...

CITY           SKY/WX    TMP DP  RH WIND       PRES   REMARKS
DENVER INTL AP MOSUNNY   81  54  39 W5        30.35S
DMNS CITY PARK   N/A     81  51  35 E2G9      30.34S
AURORA         MOSUNNY   81  52  36 VRB7      30.37F
FRONT RANGE AP MOSUNNY   81  50  34 SE3       30.36F
ERIE MUNI ARPT SUNNY     81  51  35 SE6       30.33F
BOULDER MUN AP SUNNY     79  54  41 S6        30.34S
CENTENNIAL     MOSUNNY   80  51  36 SE7       30.37F
BROOMFIELD     MOSUNNY   77  55  47 SE6       30.37F
FORT COLLINS   SUNNY     79  59  50 CALM      30.33S
LONGMONT       SUNNY     83  55  37 S3        30.34S
$$

COZ041-046-047-076>085-087-088-311800-
...PIKES PEAK/PALMER DIVIDE AND SOUTHERN FOOTHILLS...

CITY           SKY/WX    TMP DP  RH WIND       PRES   REMARKS
COLO. SPRINGS  MOSUNNY   76  55  48 VRB6      30.42S
A. F. ACADEMY  SUNNY     78  50  37 S12       30.43S
ELLICOTT       SUNNY    N/A N/A N/A SE8       30.41S
FALCON         SUNNY     75  53  45 S6        30.48R
FORT CARSON    SUNNY     77  56  49 VRB7      30.40R
LIMON          SUNNY     79  59  50 S10       30.38S
MONUMENT HILL  SUNNY     75  45  33 SE8       30.47S
TRINIDAD       PTSUNNY   79  57  46 NE8       30.38S
$$

COZ042>045-048>051-090-091-311800-
...NORTHEAST COLORADO...

CITY           SKY/WX    TMP DP  RH WIND       PRES   REMARKS
GREELEY ARPT   SUNNY     79  61  53 S3        30.33S
AKRON          SUNNY     85  54  34 S10G18    30.31S
BURLINGTON     SUNNY     80  63  55 S9        30.31F
WRAY           SUNNY     87  58  37 SE8       30.27S
STERLING       SUNNY     86  59  39 S6        30.26S
HOLYOKE        NOT AVBL
FORT MORGAN    SUNNY     81  58  44 SE6       30.31S
$$

COZ086-089-092>099-311800-
...SOUTHEAST COLORADO...

CITY           SKY/WX    TMP DP  RH WIND       PRES   REMARKS
PUEBLO         MOSUNNY   83  58  42 CALM      30.32S
LA JUNTA       SUNNY     81  61  50 E9        30.29F
LAMAR          MOSUNNY   82  61  48 S12       30.26F
SPRINGFIELD      N/A     75  64  68 S16       30.32F
$$


USA.gov is the U.S. government's official web portal to all federal, state and local government web resources and services.